FW3644 Weather Reports


Display with metric or nautical units.
time (UTC)temp
F
wind
direction
speed
MPH
gust
MPH
rain 1hr
in
rain 24hr
in
rain mn
in
humidity
%
barometer
mb
20190218090521 13 1 7.0 10.0 0.00 0.00 0.00 70 1025.0
20190218090020 13 8 8.0 14.0 0.00 0.00 0.00 71 1025.1
20190218085517 13 5 10.0 15.0 0.00 0.00 0.00 70 1025.0
20190218085024 13 6 9.0 12.0 0.00 0.00 0.00 71 1025.1
20190218084517 14 5 8.0 12.0 0.00 0.00 0.00 71 1024.9
20190218084020 14 7 9.0 14.0 0.00 0.00 0.00 70 1024.7
20190218083522 14 7 8.0 12.0 0.00 0.00 0.00 70 1024.9
20190218083020 14 3 7.0 10.0 0.00 0.00 0.00 69 1025.3
20190218082517 14 357 8.0 12.0 0.00 0.00 0.00 69 1025.3
20190218082023 14 347 6.0 8.0 0.00 0.00 0.00 70 1025.4
20190218081517 15 15 8.0 12.0 0.00 0.00 0.00 68 1025.5
20190218081019 15 20 7.0 10.0 0.00 0.00 0.00 68 1025.5
20190218080520 15 10 9.0 12.0 0.00 0.00 0.00 68 1025.3
20190218080017 15 3 8.0 12.0 0.00 0.00 0.00 68 1025.2
20190218075517 15 358 8.0 12.0 0.00 0.00 0.00 68 1025.3
20190218075024 15 8 8.0 12.0 0.00 0.00 0.00 69 1025.1
20190218074518 15 6 8.0 13.0 0.00 0.00 0.00 69 1024.8
20190218074019 15 2 9.0 14.0 0.00 0.00 0.00 68 1025.0
20190218073020 15 9 8.0 12.0 0.00 0.00 0.00 68 1024.9
20190218072518 15 5 9.0 12.0 0.00 0.00 0.00 69 1025.0
20190218072024 15 4 7.0 10.0 0.00 0.00 0.00 68 1024.9
20190218071517 16 4 8.0 11.0 0.00 0.00 0.00 69 1024.9
20190218071019 16 5 7.0 10.0 0.00 0.00 0.00 69 1024.8
20190218070522 16 18 8.0 11.0 0.00 0.00 0.00 69 1024.5
20190218070019 16 15 8.0 12.0 0.00 0.00 0.00 69 1024.4
20190218065517 16 359 7.0 11.0 0.00 0.00 0.00 69 1024.2
20190218065024 16 7 9.0 13.0 0.00 0.00 0.00 69 1023.9
20190218064518 16 21 9.0 13.0 0.00 0.00 0.00 71 1023.9
20190218064019 16 10 10.0 13.0 0.00 0.00 0.00 71 1023.9
20190218063522 16 16 7.0 10.0 0.00 0.00 0.00 71 1023.9
20190218063020 16 10 9.0 14.0 0.00 0.00 0.00 73 1023.9
20190218062518 16 19 9.0 13.0 0.00 0.00 0.00 75 1023.9
20190218062023 16 8 6.0 9.0 0.00 0.00 0.00 76 1023.8
20190218061517 15 12 6.0 8.0 0.00 0.00 0.00 76 1023.8
20190218061020 15 12 6.0 8.0 0.00 0.00 0.00 76 1023.6
20190218060521 15 3 6.0 8.0 0.00 0.00 0.00 77 1023.4
20190218055516 15 12 6.0 10.0 0.00 0.00 0.00 77 1023.0
20190218055024 15 16 7.0 11.0 0.00 0.00 0.00 77 1023.1
20190218054518 15 13 6.0 9.0 0.00 0.00 0.00 78 1023.2
20190218054020 15 24 6.0 10.0 0.00 0.00 0.00 78 1023.1
20190218053522 15 20 5.0 8.0 0.00 0.00 0.00 76 1023.1
20190218053021 15 20 5.0 7.0 0.00 0.00 0.00 76 1023.1
20190218052518 15 24 5.0 7.0 0.00 0.00 0.00 77 1023.2
20190218052023 15 50 4.0 6.0 0.00 0.00 0.00 76 1023.4
20190218051517 16 13 5.0 7.0 0.00 0.00 0.00 76 1023.1
20190218051020 16 3 5.0 7.0 0.00 0.00 0.00 76 1023.0
20190218050533 16 11 7.0 9.0 0.00 0.00 0.00 76 1022.8
20190218050015 16 7 7.0 11.0 0.00 0.00 0.00 76 1022.7
20190218045517 16 22 7.0 10.0 0.00 0.00 0.00 76 1022.6
20190218045025 16 30 6.0 9.0 0.00 0.00 0.00 75 1022.5
20190218044519 16 42 6.0 10.0 0.00 0.00 0.00 75 1022.3
20190218044020 17 23 6.0 10.0 0.00 0.00 0.00 76 1022.1
20190218043522 17 35 8.0 11.0 0.00 0.00 0.00 74 1021.9
20190218043021 17 24 7.0 10.0 0.00 0.00 0.00 74 1021.7
20190218042518 17 25 8.0 12.0 0.00 0.00 0.00 74 1021.5
20190218042025 18 21 10.0 15.0 0.00 0.00 0.00 74 1021.4
20190218041518 18 21 9.0 13.0 0.00 0.00 0.00 73 1021.4
20190218041021 18 16 9.0 14.0 0.00 0.00 0.00 73 1021.4
20190218040521 18 21 7.0 12.0 0.00 0.00 0.00 72 1021.4
20190218040022 18 36 8.0 11.0 0.00 0.00 0.00 73 1021.3
20190218035517 18 32 7.0 10.0 0.00 0.00 0.00 73 1021.3
20190218035024 18 23 9.0 13.0 0.00 0.00 0.00 72 1021.1
20190218034518 19 25 8.0 11.0 0.00 0.00 0.00 73 1021.1
20190218034021 19 24 7.0 9.0 0.00 0.00 0.00 73 1021.1
20190218033521 19 22 6.0 8.0 0.00 0.00 0.00 72 1021.0
20190218033020 19 21 6.0 8.0 0.00 0.00 0.00 71 1021.0
20190218032517 19 19 6.0 9.0 0.00 0.00 0.00 70 1020.9
20190218032024 20 24 8.0 12.0 0.00 0.00 0.00 70 1020.7
20190218031517 20 23 9.0 12.0 0.00 0.00 0.00 71 1020.6
20190218031020 20 21 8.0 11.0 0.00 0.00 0.00 70 1020.8
20190218030522 20 27 6.0 8.0 0.00 0.00 0.00 70 1020.8
20190218030020 20 24 8.0 12.0 0.00 0.00 0.00 70 1020.5
20190218025517 21 21 8.0 11.0 0.00 0.00 0.00 71 1020.4
20190218025024 21 26 7.0 10.0 0.00 0.00 0.00 71 1020.3
20190218024518 21 26 6.0 9.0 0.00 0.00 0.00 71 1020.4
20190218024020 21 34 7.0 10.0 0.00 0.00 0.00 70 1020.3
20190218023521 21 35 7.0 10.0 0.00 0.00 0.00 72 1020.2
20190218023020 21 31 5.0 8.0 0.00 0.00 0.00 71 1020.2
20190218022518 21 31 4.0 6.0 0.00 0.00 0.00 72 1020.4
20190218022026 21 43 4.0 6.0 0.00 0.00 0.00 72 1020.1
20190218021518 21 54 5.0 7.0 0.00 0.00 0.00 73 1019.8
20190218021022 21 35 5.0 6.0 0.00 0.00 0.00 72 1019.8
20190218020521 22 52 4.0 5.0 0.00 0.00 0.00 72 1019.9
20190218020022 22 57 4.0 6.0 0.00 0.00 0.00 71 1019.7
20190218015517 22 46 4.0 6.0 0.00 0.00 0.00 72 1019.6
20190218015024 21 61 3.0 5.0 0.00 0.00 0.00 71 1019.7
20190218014518 21 67 2.0 3.0 0.00 0.00 0.00 70 1019.7
20190218014020 22 90 1.0 1.0 0.00 0.00 0.00 69 1019.6
20190218013522 23 67 2.0 2.0 0.00 0.00 0.00 68 1019.4
20190218013021 23 67 0.0 1.0 0.00 0.00 0.00 67 1019.3
20190218012517 24 67 0.0 0.0 0.00 0.00 0.00 66 1019.2
20190218012024 24 67 0.0 0.0 0.00 0.00 0.00 65 1019.3
20190218011518 24 67 0.0 1.0 0.00 0.00 0.00 65 1019.0
20190218011020 24 34 2.0 4.0 0.00 0.00 0.00 64 1018.8
20190218010521 25 7 3.0 5.0 0.00 0.00 0.00 64 1018.7
20190218010021 25 20 4.0 5.0 0.00 0.00 0.00 63 1018.5
20190218005517 26 14 4.0 6.0 0.00 0.00 0.00 62 1018.4
20190218005024 26 21 5.0 7.0 0.00 0.00 0.00 61 1018.3
20190218004518 26 8 5.0 8.0 0.00 0.00 0.00 61 1018.2
20190218004019 27 2 6.0 8.0 0.00 0.00 0.00 60 1018.1
20190218003522 27 6 7.0 10.0 0.00 0.00 0.00 59 1018.1
20190218003020 28 14 7.0 10.0 0.00 0.00 0.00 58 1018.0
20190218002518 28 11 6.0 9.0 0.00 0.00 0.00 57 1018.0
20190218002024 29 16 7.0 10.0 0.00 0.00 0.00 56 1018.0
20190218001518 29 3 7.0 11.0 0.00 0.00 0.00 56 1017.8
20190218001021 30 3 7.0 9.0 0.00 0.00 0.00 55 1017.9
20190218000521 30 356 9.0 13.0 0.00 0.00 0.00 54 1017.7
20190218000021 31 357 10.0 14.0 0.00 0.00 0.00 54 1017.8
20190217235517 31 351 8.0 14.0 0.00 0.00 0.00 54 1017.8
20190217235024 31 346 10.0 15.0 0.00 0.00 0.00 53 1018.0
20190217234517 31 347 9.0 14.0 0.00 0.00 0.00 53 1017.8
20190217234019 32 357 9.0 12.0 0.00 0.00 0.00 52 1017.8
20190217233521 32 5 10.0 14.0 0.00 0.00 0.00 52 1017.8
20190217233020 32 353 9.0 14.0 0.00 0.00 0.00 52 1017.8
20190217232517 32 350 10.0 15.0 0.00 0.00 0.00 52 1017.6
20190217232025 33 342 10.0 14.0 0.00 0.00 0.00 52 1017.4
20190217231518 33 358 11.0 17.0 0.00 0.00 0.00 52 1017.5
20190217231020 33 342 12.0 18.0 0.00 0.00 0.00 51 1017.3
20190217230521 33 359 12.0 17.0 0.00 0.00 0.00 51 1017.3
20190217230021 34 342 11.0 16.0 0.00 0.00 0.00 51 1017.4
20190217225517 34 339 11.0 15.0 0.00 0.00 0.00 51 1017.5
20190217225024 34 345 10.0 16.0 0.00 0.00 0.00 50 1017.4
20190217224518 34 1 12.0 15.0 0.00 0.00 0.00 50 1017.4
20190217224020 34 346 10.0 15.0 0.00 0.00 0.00 51 1017.3
20190217223522 34 355 12.0 17.0 0.00 0.00 0.00 51 1017.2
20190217223020 34 356 10.0 15.0 0.00 0.00 0.00 51 1017.2
20190217222517 35 354 10.0 16.0 0.00 0.00 0.00 51 1017.2
20190217222025 34 356 10.0 13.0 0.00 0.00 0.00 51 1017.1
20190217221517 34 351 12.0 17.0 0.00 0.00 0.00 51 1017.1
20190217221020 34 337 13.0 19.0 0.00 0.00 0.00 51 1017.0
20190217220521 35 338 11.0 15.0 0.00 0.00 0.00 51 1017.1
20190217220021 35 338 12.0 15.0 0.00 0.00 0.00 51 1017.0
20190217215517 35 338 9.0 12.0 0.00 0.00 0.00 51 1017.0
20190217215024 35 350 10.0 14.0 0.00 0.00 0.00 50 1016.9
20190217214518 34 1 11.0 15.0 0.00 0.00 0.00 51 1016.8
20190217214020 35 340 13.0 18.0 0.00 0.00 0.00 51 1016.7
20190217213521 35 349 9.0 12.0 0.00 0.00 0.00 51 1016.9
20190217213021 35 339 9.0 14.0 0.00 0.00 0.00 52 1016.9
20190217212517 34 321 9.0 14.0 0.00 0.00 0.00 52 1017.1
20190217212024 34 9 9.0 14.0 0.00 0.00 0.00 52 1016.9
20190217211518 34 327 10.0 14.0 0.00 0.00 0.00 52 1017.0
20190217211019 34 351 11.0 15.0 0.00 0.00 0.00 53 1017.0
20190217210520 34 351 8.0 12.0 0.00 0.00 0.00 53 1017.0
20190217210022 34 329 10.0 13.0 0.00 0.00 0.00 53 1017.0
20190217205517 34 342 10.0 14.0 0.00 0.00 0.00 54 1017.0
20190217205024 33 358 10.0 14.0 0.00 0.00 0.00 54 1016.9
20190217204517 33 326 12.0 16.0 0.00 0.00 0.00 54 1016.8
20190217204020 33 328 11.0 16.0 0.00 0.00 0.00 54 1016.9
20190217203522 34 332 10.0 14.0 0.00 0.00 0.00 54 1017.0
20190217203020 34 341 11.0 15.0 0.00 0.00 0.00 54 1016.9
20190217202517 33 305 10.0 13.0 0.00 0.00 0.00 56 1016.9
20190217202024 33 335 11.0 15.0 0.00 0.00 0.00 55 1016.9
20190217201518 33 335 11.0 16.0 0.00 0.00 0.00 56 1016.9
20190217201021 33 339 12.0 16.0 0.00 0.00 0.00 56 1016.8
20190217200520 33 336 13.0 16.0 0.00 0.00 0.00 58 1016.9
20190217200021 33 316 9.0 14.0 0.00 0.00 0.00 58 1016.9
20190217195517 32 340 11.0 16.0 0.00 0.00 0.00 58 1016.8
20190217195024 32 338 10.0 15.0 0.00 0.00 0.00 59 1016.9
20190217194518 32 345 10.0 14.0 0.00 0.00 0.00 59 1016.9
20190217194019 32 337 10.0 14.0 0.00 0.00 0.00 59 1016.8
20190217193521 32 304 11.0 15.0 0.00 0.00 0.00 60 1016.9
20190217193020 32 336 11.0 16.0 0.00 0.00 0.00 61 1016.8
20190217192517 31 337 10.0 15.0 0.00 0.00 0.00 61 1016.8
20190217192024 31 345 12.0 16.0 0.00 0.00 0.00 62 1016.9
20190217191519 31 1 11.0 17.0 0.00 0.00 0.00 63 1017.0
20190217191021 31 335 11.0 14.0 0.00 0.00 0.00 63 1017.0
20190217190521 31 336 9.0 14.0 0.00 0.00 0.00 65 1017.1
20190217190022 30 337 10.0 15.0 0.00 0.00 0.00 65 1017.1
20190217185518 30 352 9.0 13.0 0.00 0.00 0.00 66 1017.1
20190217185025 30 322 12.0 17.0 0.00 0.00 0.00 68 1017.2
20190217184517 29 320 10.0 14.0 0.00 0.00 0.00 68 1017.3
20190217184020 29 310 11.0 15.0 0.00 0.00 0.00 69 1017.4
20190217183522 29 317 10.0 14.0 0.00 0.00 0.00 69 1017.4
20190217183020 29 318 13.0 16.0 0.00 0.00 0.00 71 1017.4
20190217182517 29 307 10.0 14.0 0.00 0.00 0.00 72 1017.4
20190217182024 28 335 10.0 15.0 0.00 0.00 0.00 72 1017.4
20190217181517 28 312 13.0 16.0 0.00 0.00 0.00 72 1017.4
20190217181020 28 316 14.0 18.0 0.00 0.00 0.00 74 1017.5
20190217180521 28 334 11.0 16.0 0.00 0.00 0.00 75 1017.6
20190217180021 28 322 10.0 14.0 0.00 0.00 0.00 76 1017.6
20190217175518 28 297 12.0 15.0 0.00 0.00 0.00 77 1017.7
20190217175023 27 321 8.0 11.0 0.00 0.00 0.00 77 1017.7
20190217174518 27 312 9.0 11.0 0.00 0.00 0.00 77 1017.6
20190217174021 27 348 10.0 13.0 0.00 0.00 0.00 77 1017.7
20190217173522 26 319 9.0 14.0 0.00 0.00 0.00 77 1017.6
20190217173021 26 306 7.0 10.0 0.00 0.00 0.00 78 1017.6
20190217172518 26 308 9.0 13.0 0.00 0.00 0.00 77 1017.5
20190217172024 26 325 8.0 12.0 0.00 0.00 0.00 79 1017.4
20190217171518 25 318 8.0 12.0 0.00 0.00 0.00 79 1017.3
20190217171020 25 309 8.0 11.0 0.00 0.00 0.00 79 1017.2
20190217170521 25 322 8.0 11.0 0.00 0.00 0.00 79 1017.1
20190217170021 25 319 9.0 13.0 0.00 0.00 0.00 80 1017.1
20190217165518 25 310 9.0 13.0 0.00 0.00 0.00 79 1017.1
20190217165025 25 328 8.0 12.0 0.00 0.00 0.00 81 1017.2
20190217164517 25 322 7.0 10.0 0.00 0.00 0.00 81 1017.2
20190217164020 24 332 6.0 8.0 0.00 0.00 0.00 81 1017.1
20190217163521 24 313 6.0 9.0 0.00 0.00 0.00 82 1016.9
20190217163021 24 313 7.0 10.0 0.00 0.00 0.00 82 1016.8
20190217162517 24 331 6.0 9.0 0.00 0.00 0.00 82 1016.6
20190217162024 24 336 8.0 12.0 0.00 0.00 0.00 82 1016.5
20190217161517 23 339 8.0 10.0 0.00 0.00 0.00 82 1016.3
20190217161020 23 334 9.0 14.0 0.00 0.00 0.00 80 1016.2
20190217160521 23 334 10.0 15.0 0.00 0.00 0.00 81 1016.1
20190217160021 23 336 12.0 16.0 0.00 0.00 0.00 81 1016.0
20190217155518 23 334 10.0 14.0 0.00 0.00 0.00 82 1015.9
20190217155024 23 332 9.0 13.0 0.00 0.00 0.00 83 1015.8
20190217154518 22 337 11.0 15.0 0.00 0.00 0.00 83 1015.6
20190217154019 22 325 8.0 12.0 0.00 0.00 0.00 84 1015.5
20190217153521 22 332 11.0 15.0 0.00 0.00 0.00 83 1015.4
20190217153020 22 334 11.0 16.0 0.00 0.00 0.00 83 1015.2
20190217152517 21 339 7.0 10.0 0.00 0.00 0.00 84 1015.1
20190217152024 21 335 7.0 9.0 0.00 0.00 0.00 85 1015.3
20190217151517 21 339 6.0 8.0 0.00 0.00 0.00 85 1015.1
20190217151019 21 332 6.0 8.0 0.00 0.00 0.00 85 1015.0
20190217150521 21 322 6.0 9.0 0.00 0.00 0.00 85 1014.9
20190217150021 21 323 6.0 8.0 0.00 0.00 0.00 85 1014.8
20190217145517 21 311 5.0 7.0 0.00 0.00 0.00 86 1014.7
20190217145023 20 324 5.0 7.0 0.00 0.00 0.00 87 1014.7
20190217144517 20 316 5.0 6.0 0.00 0.00 0.00 87 1014.5
20190217144019 20 302 5.0 6.0 0.00 0.00 0.00 88 1014.3
20190217143521 20 305 5.0 7.0 0.00 0.00 0.00 88 1014.0
20190217143020 19 316 4.0 6.0 0.00 0.00 0.00 88 1013.8
20190217142517 19 318 4.0 6.0 0.00 0.00 0.00 89 1013.5
20190217142024 19 299 4.0 6.0 0.00 0.00 0.00 89 1013.4
20190217141517 18 306 4.0 5.0 0.00 0.00 0.00 89 1013.2
20190217141019 18 299 3.0 4.0 0.00 0.00 0.00 90 1013.2
20190217140521 18 299 3.0 4.0 0.00 0.00 0.00 90 1013.0
20190217140021 17 294 2.0 4.0 0.00 0.00 0.00 89 1012.8
20190217135517 17 300 2.0 4.0 0.00 0.00 0.00 89 1012.8
20190217135024 17 293 3.0 4.0 0.00 0.00 0.00 90 1012.7
20190217134518 18 292 2.0 3.0 0.00 0.00 0.00 89 1012.6
20190217134019 18 292 3.0 4.0 0.00 0.00 0.00 90 1012.5
20190217133521 18 304 2.0 3.0 0.00 0.00 0.00 89 1012.4
20190217133021 18 301 3.0 4.0 0.00 0.00 0.00 89 1012.3
20190217132516 18 303 2.0 4.0 0.00 0.00 0.00 89 1012.2
20190217132024 19 303 3.0 4.0 0.00 0.00 0.00 88 1012.2
20190217131517 19 307 4.0 6.0 0.00 0.00 0.00 88 1012.1
20190217131019 20 306 4.0 6.0 0.00 0.00 0.00 88 1012.0
20190217130521 20 330 4.0 6.0 0.00 0.00 0.00 90 1011.8
20190217130020 20 335 5.0 6.0 0.00 0.00 0.00 90 1011.7
20190217125517 20 336 5.0 6.0 0.00 0.00 0.00 90 1011.7
20190217125023 20 332 5.0 7.0 0.00 0.00 0.00 89 1011.6
20190217124517 20 332 5.0 6.0 0.00 0.00 0.00 90 1011.4
20190217124019 20 331 4.0 5.0 0.00 0.00 0.00 90 1011.3
20190217123520 20 336 4.0 5.0 0.00 0.00 0.00 89 1011.2
20190217123021 20 344 3.0 5.0 0.00 0.00 0.00 89 1011.2
20190217122517 21 337 5.0 6.0 0.00 0.00 0.00 89 1011.0
20190217122025 21 334 4.0 6.0 0.00 0.00 0.00 88 1011.1
20190217121517 21 334 5.0 6.0 0.00 0.00 0.00 88 1011.1
20190217121019 21 341 4.0 5.0 0.00 0.00 0.00 88 1011.2
20190217120522 21 336 4.0 5.0 0.00 0.00 0.00 89 1011.3
20190217120021 21 329 4.0 5.0 0.00 0.00 0.00 88 1011.1
20190217115516 22 331 5.0 7.0 0.00 0.00 0.00 88 1011.2
20190217115023 22 326 5.0 6.0 0.00 0.00 0.00 88 1011.0
20190217114518 22 329 5.0 6.0 0.00 0.00 0.00 89 1011.0
20190217114019 22 323 5.0 6.0 0.00 0.00 0.00 89 1010.9
20190217113521 22 318 4.0 5.0 0.00 0.00 0.00 89 1010.8
20190217113020 22 320 4.0 5.0 0.00 0.00 0.00 89 1010.7
20190217112517 21 321 3.0 5.0 0.00 0.00 0.00 90 1010.6
20190217112025 21 317 3.0 4.0 0.00 0.00 0.00 91 1010.7
20190217111517 21 310 3.0 3.0 0.00 0.00 0.00 91 1010.8
20190217111019 21 312 3.0 4.0 0.00 0.00 0.00 91 1010.8
20190217110521 22 314 3.0 3.0 0.00 0.00 0.00 91 1010.8
20190217110020 22 315 2.0 3.0 0.00 0.00 0.00 90 1010.8
20190217105517 22 316 3.0 4.0 0.00 0.00 0.00 91 1010.6
20190217105024 22 310 3.0 4.0 0.00 0.00 0.00 91 1010.7
20190217104517 22 321 3.0 4.0 0.00 0.00 0.00 90 1010.4
20190217104018 22 313 3.0 4.0 0.00 0.00 0.00 90 1010.2
20190217103521 22 306 3.0 4.0 0.00 0.00 0.00 90 1009.9
20190217103020 23 308 3.0 4.0 0.00 0.00 0.00 91 1009.8
20190217102517 23 305 3.0 4.0 0.00 0.00 0.00 90 1009.8
20190217102024 23 309 3.0 5.0 0.00 0.00 0.00 90 1009.7
20190217101517 23 304 3.0 5.0 0.00 0.00 0.00 91 1009.6
20190217101020 23 311 3.0 4.0 0.00 0.00 0.00 91 1009.5
20190217100521 22 315 4.0 5.0 0.00 0.00 0.00 92 1009.4
20190217100020 22 308 3.0 5.0 0.00 0.00 0.00 93 1009.3
20190217095524 23 308 3.0 4.0 0.00 0.00 0.00 93 1009.2
20190217095028 23 309 3.0 4.0 0.00 0.00 0.00 92 1009.1
20190217094522 23 310 3.0 5.0 0.00 0.00 0.00 92 1009.1
20190217094018 23 308 3.0 4.0 0.00 0.00 0.00 93 1009.0
20190217093520 23 312 3.0 4.0 0.00 0.00 0.00 92 1009.1
20190217093020 23 320 3.0 4.0 0.00 0.00 0.00 92 1009.1
20190217092517 23 310 3.0 4.0 0.00 0.00 0.00 93 1009.0
20190217092022 24 307 3.0 4.0 0.00 0.00 0.00 92 1009.0
20190217091517 24 310 3.0 4.0 0.00 0.00 0.00 93 1008.9
20190217091020 24 312 3.0 4.0 0.00 0.00 0.00 93 1008.9